{"data":{"norad_id":36590,"intl_designator":"2010-024A","name":"BEIDOU-2 G3","alt_names":[],"object_type":"PAYLOAD","status":"ACTIVE","operator":null,"country":"PRC","launch_date":"2010-06-02","launch_site_code":"XICLF","launch_vehicle":null,"mission":null,"orbit_class":"UNKNOWN","rcs_meters":52.4,"size_class":null,"mass_kg":null,"dimensions":null,"purposes":["comms"],"wikipedia_slug":null,"has_3d_model":false,"image_url":null,"decayed_at":null,"tle_current":{"epoch":"2026-05-25T04:07:22.580832Z","epoch_age_seconds":63798,"freshness":"FRESH","line1":"1 36590U 10024A   26145.17178913 -.00000137  00000+0  00000+0 0  9995","line2":"2 36590   4.4639  61.6179 0008429 344.3847 338.2128  1.00273563 58532","mean_motion":1.00273563,"eccentricity":0.0008429,"inclination_deg":4.4639,"raan_deg":61.6179,"arg_perigee_deg":344.3847,"mean_anomaly_deg":338.2128,"bstar":0,"rev_number":5853,"period_min":1436.0714398869,"perigee_km":35750.556298169,"apogee_km":35821.636763055,"semimajor_km":42164.233530612,"source":"CELESTRAK","updated_at":"2026-05-25T13:38:13.892628Z"}}}